EW7554 Weather Reports


time (UTC)temp
C
wind
direction
speed
KPH
gust
KPH
rain 1hr
cm
rain 24hr
cm
rain mn
cm
humidity
%
barometer
mb
20260903181532 25 111 1.6 4.8 0.05 0.05 0.05 78 1008.9
20260903180037 26 126 0.0 11.3 0.00 0.00 0.00 73 1008.8
20260903174528 26 164 6.4 9.7 0.00 0.00 0.00 69 1008.8
20260903173028 26 96 4.8 12.9 0.00 0.00 0.00 69 1008.8
20260903171535 27 165 6.4 16.1 0.00 0.00 0.00 68 1009.2
20260903170036 26 123 4.8 14.5 0.00 0.00 0.00 73 1009.5
20260903164524 25 167 4.8 8.0 0.00 0.00 0.00 73 1009.6
20260903163026 26 167 4.8 16.1 0.00 0.00 0.00 71 1009.5
20260903161522 26 156 6.4 14.5 0.00 0.00 0.00 70 1009.5
20260903160022 26 145 4.8 12.9 0.00 0.00 0.00 67 1009.5
20260903154521 26 139 4.8 11.3 0.00 0.00 0.00 66 1009.4
20260903153018 26 156 1.6 8.0 0.00 0.00 0.00 66 1009.4
20260903151517 26 170 4.8 9.7 0.00 0.00 0.00 68 1009.6
20260903150034 26 94 1.6 6.4 0.00 0.00 0.00 68 1009.3
20260903144523 26 132 3.2 8.0 0.00 0.00 0.00 66 1009.3
20260903143023 26 198 3.2 6.4 0.00 0.00 0.00 68 1009.3
20260903141508 25 152 3.2 11.3 0.00 0.00 0.00 69 1009.4
20260903140013 25 131 1.6 11.3 0.00 0.00 0.00 69 1009.4
20260903134501 25 159 3.2 11.3 0.00 0.00 0.00 70 1009.6
20260903133106 24 107 1.6 4.8 0.00 0.00 0.00 74 1009.6
20260903131555 24 163 4.8 9.7 0.00 0.00 0.00 74 1009.7
20260903124557 24 165 14.5 20.9 0.00 0.00 0.00 74 1009.4
20260903123051 24 187 4.8 12.9 0.00 0.00 0.00 74 1008.7
20260903121549 24 190 6.4 14.5 0.00 0.00 0.00 74 1008.6
20260903120052 24 154 4.8 9.7 0.00 0.00 0.00 76 1008.9
20260903114543 24 165 4.8 16.1 0.00 0.00 0.00 79 1009.6
20260903113050 23 163 6.4 11.3 0.00 0.00 0.00 82 1009.6
20260903111541 23 173 4.8 8.0 0.00 0.00 0.00 82 1009.6
20260903110040 23 141 6.4 11.3 0.00 0.00 0.00 83 1009.4
20260903104540 23 171 6.4 9.7 0.00 0.00 0.00 83 1009.6
20260903103039 22 167 6.4 12.9 0.00 0.00 0.00 85 1009.9
20260903101538 22 143 3.2 8.0 0.00 0.00 0.00 85 1009.4
20260903100037 22 167 4.8 9.7 0.00 0.00 0.00 85 1009.5
20260903094544 22 137 3.2 6.4 0.00 0.00 0.00 85 1009.4
20260903093034 22 69 0.0 4.8 0.00 0.00 0.00 84 1009.2
20260903091534 23 73 1.6 4.8 0.00 0.00 0.00 84 1009.4
20260903090033 23 70 1.6 6.4 0.00 0.00 0.00 83 1009.1
20260903084542 23 97 3.2 8.0 0.00 0.00 0.00 83 1009.1
20260903083028 23 66 3.2 6.4 0.00 0.00 0.00 82 1009.2
20260903081527 23 41 3.2 6.4 0.00 0.00 0.00 82 1009.4
20260903080026 23 70 3.2 9.7 0.00 0.00 0.00 82 1009.4
20260903074523 23 65 1.6 8.0 0.00 0.08 0.00 81 1009.6
20260903073024 23 102 3.2 9.7 0.00 0.08 0.00 81 1009.7
20260903071524 23 48 1.6 6.4 0.00 0.08 0.00 80 1009.8
20260903070019 23 48 1.6 8.0 0.00 0.08 0.00 80 1009.8
20260903064517 23 58 3.2 6.4 0.00 0.10 0.00 79 1009.9
20260903063015 24 66 1.6 6.4 0.00 0.10 0.00 79 1010.0
20260903061516 24 60 1.6 4.8 0.00 0.10 0.00 78 1010.0
20260903060013 24 61 3.2 6.4 0.00 0.10 0.00 78 1010.0
20260903054510 25 74 1.6 6.4 0.00 0.10 0.00 77 1010.1
20260903053005 25 69 1.6 6.4 0.00 0.10 0.00 77 1010.0
20260903051504 25 67 3.2 9.7 0.00 0.10 0.00 76 1010.0
20260903050105 25 59 1.6 6.4 0.00 0.10 0.00 75 1010.1
20260903044603 25 78 1.6 8.0 0.00 0.10 0.10 75 1010.2
20260903043111 25 74 4.8 8.0 0.00 0.10 0.10 74 1010.3
20260903041558 25 66 3.2 8.0 0.00 0.10 0.10 73 1010.5
20260903040058 26 34 1.6 8.0 0.00 0.10 0.10 72 1010.5
20260903034607 26 50 1.6 6.4 0.00 0.10 0.10 72 1010.5
20260903033057 26 53 1.6 6.4 0.00 0.10 0.10 71 1010.5
20260903031616 26 55 1.6 6.4 0.00 0.10 0.10 70 1010.6
20260903030056 27 80 1.6 4.8 0.00 0.10 0.10 68 1010.5
20260903024555 27 73 1.6 4.8 0.00 0.10 0.10 66 1010.5
20260903023055 27 68 0.0 3.2 0.00 0.10 0.10 65 1010.5
20260903021555 27 61 1.6 4.8 0.00 0.10 0.10 63 1010.4
20260903020053 28 153 1.6 3.2 0.00 0.10 0.10 61 1010.4
20260903014559 28 155 0.0 1.6 0.00 0.10 0.10 61 1010.3
20260903013052 28 155 0.0 3.2 0.00 0.10 0.10 61 1010.2
20260903011551 28 155 0.0 0.0 0.00 0.10 0.10 60 1010.2
20260903010050 29 155 0.0 1.6 0.00 0.10 0.10 60 1009.8
20260903004549 30 155 0.0 1.6 0.00 0.10 0.10 57 1009.8
20260903003050 30 156 0.0 1.6 0.00 0.10 0.10 56 1009.9
20260903001551 30 156 0.0 4.8 0.00 0.10 0.10 56 1009.8
20260903000048 30 155 1.6 4.8 0.00 0.10 0.10 56 1010.0
20260902234547 30 155 1.6 9.7 0.00 0.10 0.10 55 1009.8
20260902233046 30 175 3.2 8.0 0.00 0.10 0.10 54 1009.9
20260902231545 30 151 3.2 11.3 0.00 0.10 0.10 54 1010.0
20260902230043 30 146 8.0 16.1 0.00 0.10 0.10 54 1010.1
20260902224544 31 144 3.2 9.7 0.00 0.10 0.10 53 1010.0
20260902223043 31 134 4.8 9.7 0.00 0.10 0.10 52 1010.0
20260902221543 31 149 1.6 11.3 0.00 0.10 0.10 53 1010.0
20260902220046 32 155 4.8 11.3 0.00 0.10 0.10 50 1010.1
20260902214539 31 107 1.6 11.3 0.00 0.10 0.10 50 1010.1
20260902213038 31 63 3.2 8.0 0.00 0.10 0.10 51 1010.3
20260902211543 32 94 1.6 6.4 0.00 0.10 0.10 50 1010.4
20260902204539 31 345 3.2 9.7 0.00 0.10 0.10 53 1010.4
20260902203030 31 116 1.6 8.0 0.00 0.10 0.10 53 1010.4
20260902201533 30 75 3.2 11.3 0.00 0.10 0.10 55 1010.7
20260902200027 30 186 3.2 9.7 0.00 0.10 0.10 54 1011.0
20260902194532 30 152 3.2 8.0 0.00 0.10 0.10 54 1011.2
20260902193023 30 150 1.6 8.0 0.00 0.10 0.10 53 1011.3
20260902191520 30 149 1.6 6.4 0.00 0.10 0.10 55 1011.5
20260902190019 28 162 6.4 16.1 0.00 0.10 0.10 55 1011.4
20260902184514 28 195 4.8 8.0 0.00 0.10 0.10 56 1011.3
20260902183012 28 9 3.2 9.7 0.00 0.10 0.10 56 1011.4